Kuchera_Ratio
0.0 0.0 0.0 0.0 0.0 0.0 0.0 0.0 0.0 0.0 0.0 0.0 0.0 0.0 0.0 0.0 0.0 0.0 0.0 0.0 0.0 0.0 0.0 0.0 0.0 0.0 0.0 0.0 0.0 0.0 0.0 0.0 0.0 0.0 0.0 0.0 0.0 0.0
0.0 0.0 0.0 0.0 0.0 0.0 0.0 0.0 0.0 0.0 0.0 0.0 0.0 0.0 0.0 0.0 0.0 0.0 0.0 0.0 0.0 0.0 0.0 0.0 0.0 0.0 0.0 0.0 0.0 0.0 0.0 0.0 0.0 0.0 0.0 0.0 0.0 0.0
0.0 0.0 0.0 0.0 0.0 0.0 0.0 0.0 0.0 0.0 0.0 0.0 0.0 0.0 0.0 0.0 0.0 0.0 0.0 0.0 0.0 0.0 0.0 0.0 0.0 0.0 0.0 0.0 0.0 0.0 0.0 0.0 0.0 0.0 0.0 0.0 0.0 0.0
0.0 0.0 0.0 0.0 0.0 0.0 0.0 0.0 0.0 0.0 0.0 0.1 0.0 0.0 0.0 0.0 0.0 0.0 0.0 0.0 0.0 0.0 0.0 0.0 0.0 0.0 0.0 0.0 0.0 0.0 0.0 0.0 0.0 0.0 0.0 0.0 0.0 0.0
0.0 0.0 0.0 0.0 0.0 0.0 0.0 0.0 0.0 0.0 0.0 0.1 0.0 0.0 0.0 0.0 0.0 0.0 0.0 0.0 0.0 0.0 0.0 0.0 0.0 0.0 0.0 0.0 0.0 0.0 0.0 0.0 0.0 0.0 0.0 0.0 0.0 0.0
0.0 0.0 0.0 0.0 0.0 0.0 0.0 0.0 0.0 0.0 0.2 3.0 1.7 1.3 3.0 2.7 2.7 3.3 3.7 1.7 1.2 0.0 0.0 0.0 0.0 0.0 0.0 0.0 0.0 0.0 0.0 0.0 0.0 0.0 0.0 0.0 0.0 0.0
0.0 0.0 0.0 0.0 0.0 0.0 0.0 0.0 1.3 2.9 3.5 4.3 4.5 4.2 4.1 3.5 8.0 5.2 6.7 4.7 3.1 5.0 3.5 0.6 0.6 0.0 0.0 0.0 0.0 0.0 0.0 0.0 0.0 0.0 0.0 0.0 0.0 0.0
0.0 0.0 0.0 0.0 1.1 1.9 2.1 2.4 5.4 6.5 8.1 9.4 9.6 10.3 10.9 8.6 8.9 9.7 8.7 8.5 9.9 0.8 5.0 5.7 4.1 4.1 1.9 2.7 0.0 0.0 0.0 0.0 0.0 0.0 0.0 0.0 0.0 0.0
0.0 0.5 0.9 2.5 4.8 5.1 5.3 5.7 6.5 5.5 8.9 10.3 11.6 12.2 12.7 12.2 12.5 12.7 12.5 12.5 12.4 8.1 6.9 8.7 7.4 8.1 2.3 0.5 0.0 0.0 0.0 0.0 0.0 0.0 0.0 0.0 0.0 0.3
3.4 5.0 4.9 6.4 7.0 6.8 7.2 7.4 8.4 10.0 9.3 9.4 12.9 13.0 13.0 11.5 12.7 11.3 12.1 10.9 8.3 6.3 6.3 12.5 6.7 8.5 4.3 4.1 0.1 0.0 0.0 0.0 0.0 0.0 0.0 0.0 0.7 1.3
6.5 7.1 7.3 8.3 6.9 6.1 10.0 10.3 10.6 10.9 6.1 5.5 5.3 5.1 5.3 5.3 5.9 9.7 11.9 12.5 13.2 12.1 10.7 11.5 8.3 9.3 10.0 9.3 7.3 0.0 0.0 0.1 0.0 0.1 0.5 0.7 1.1 1.9
8.4 9.2 7.7 9.5 8.1 7.7 12.4 12.7 12.6 13.0 13.3 13.0 12.7 11.5 8.7 9.7 8.1 10.5 12.2 13.9 13.6 13.7 10.3 13.1 10.5 9.9 12.8 12.2 10.7 8.1 5.0 1.5 1.5 1.3 1.1 1.3 1.5 6.1
9.9 10.8 11.6 9.5 8.3 7.9 9.5 12.4 12.8 13.4 13.8 14.4 14.3 14.1 13.6 13.6 13.3 12.9 13.0 14.3 15.3 15.0 9.5 9.1 12.5 10.3 11.9 13.1 12.6 11.9 11.0 8.9 9.3 7.8 4.7 4.1 3.7 5.3
11.9 12.6 12.5 9.7 9.1 8.9 12.1 10.9 12.2 14.0 16.1 16.6 16.5 16.1 16.0 15.8 15.1 14.6 14.3 13.7 12.9 13.6 11.1 8.1 10.7 11.1 12.8 14.4 14.3 12.5 10.6 9.5 9.7 11.2 12.2 10.3 6.1 5.3
12.5 12.2 11.3 10.9 10.5 12.3 12.2 12.7 14.0 15.8 17.3 17.5 17.7 17.7 16.8 16.0 15.1 15.2 14.5 13.8 13.7 13.3 10.1 6.5 8.3 9.7 12.2 13.9 13.7 13.2 12.3 11.1 11.2 12.2 12.3 12.4 12.6 12.6
13.0 12.8 13.4 13.1 13.6 13.9 13.8 14.1 15.1 15.9 17.2 18.0 18.4 17.7 17.0 17.6 17.7 16.5 17.3 16.7 16.9 16.1 11.9 6.3 7.3 8.9 12.8 13.0 11.8 13.3 12.1 13.5 12.2 12.0 12.4 12.7 12.6 12.8
14.5 14.5 15.3 15.6 16.0 15.8 15.8 16.0 16.5 17.0 18.1 18.4 19.0 19.2 19.3 19.3 19.1 17.8 17.7 18.1 18.6 17.4 14.8 8.9 8.1 9.3 10.5 11.5 13.6 12.5 13.1 13.6 12.2 12.6 13.6 13.2 12.8 12.7
14.8 16.8 18.8 18.9 18.4 17.3 18.0 18.2 18.1 18.6 18.8 19.2 20.0 19.9 21.1 21.1 20.6 19.7 18.8 19.5 19.2 18.7 14.8 12.1 12.3 12.7 12.6 12.1 9.7 12.4 13.0 13.4 12.2 12.7 13.2 14.5 14.2 12.7
16.8 17.9 20.0 20.2 19.3 18.0 18.6 19.1 20.0 19.5 19.5 20.8 21.4 21.5 22.0 21.2 22.2 21.7 20.4 19.9 20.5 18.5 17.1 12.4 12.7 13.1 15.0 16.3 12.2 7.5 12.9 12.7 12.9 13.0 12.8 14.1 14.1 13.0
16.5 18.1 19.4 19.8 19.3 19.3 19.6 20.3 20.5 21.5 22.6 22.6 23.1 23.8 24.2 23.3 23.8 23.4 21.7 21.9 21.1 19.9 18.3 12.7 13.0 12.9 14.8 15.4 14.6 11.9 8.5 12.4 13.2 13.3 13.7 13.6 13.5 11.7
17.7 18.1 18.7 19.2 20.0 20.2 21.4 23.1 24.2 24.7 25.0 25.1 25.1 25.2 25.3 25.1 24.8 24.4 22.9 22.3 21.6 20.1 19.7 14.0 12.1 12.3 13.3 13.7 15.7 14.1 12.1 9.9 12.8 12.8 13.0 14.4 15.0 14.9
19.2 19.1 19.2 19.9 21.2 21.7 23.6 24.7 25.3 25.6 25.6 25.7 25.7 25.8 26.0 26.1 25.7 25.0 24.0 23.9 21.7 20.7 19.4 17.1 12.2 11.9 14.1 14.3 15.3 14.3 13.9 12.6 12.6 9.5 10.5 12.5 14.5 16.3
20.5 20.5 21.5 22.7 22.8 23.2 23.0 25.9 26.3 26.4 26.4 26.4 26.4 25.9 26.6 26.7 24.9 24.1 24.7 23.4 21.8 21.1 20.1 18.6 14.1 12.8 13.6 13.5 14.5 14.6 14.3 13.6 12.7 12.7 12.3 10.9 9.7 9.5